Change the Weather History Date:

Friday, January 11, 2013

  Actual Average Record
Temperature  
Mean Temperature 38 °F -  
Max Temperature 41 °F 42 °F 53 °F (2009)
Min Temperature 35 °F 31 °F 24 °F (2008)
Degree Days  
Heating Degree Days 27    
Moisture  
Dew Point 38 °F    
Average Humidity 94    
Maximum Humidity 100    
Minimum Humidity 86    
Precipitation  
Precipitation 0.08 in 0.09 in - ()
Sea Level Pressure  
Sea Level Pressure 29.98 in    
Wind  
Wind Speed 6 mph ()    
Max Wind Speed 16 mph    
Max Gust Speed -    
Visibility 6.5 miles    
Events Rain    
Averages and records for this station are not official NWS values.
T = Trace of Precipitation, MM = Missing Value Source: Averaged Metar Reports

Daily Weather History Graph

Daily Weather History Graph

Search for Another Location

Airport or City:

Trip Planner

Search our weather history database for the weather conditions in past years. The results will help you decide how hot, cold, wet, or windy it might be!

Date:

Astronomy

Jan. 11, 2013 Rise Set
Actual Time 8:41 AM GMT 3:52 PM GMT
Civil Twilight 7:53 AM GMT 4:40 PM GMT
Nautical Twilight 7:04 AM GMT 5:29 PM GMT
Astronomical Twilight 6:17 AM GMT 6:16 PM GMT
Moon 7:54 AM GMT (1/11) 4:03 PM GMT (1/11)
Length of Visible Light 8h 46m
Length of Day
7h 11m
Waning Crescent, 0% of the Moon is Illuminated
Jan 11
Waning Crescent
Jan 11
New
Jan 18
First Quarter
Jan 27
Full
Feb 3
Last Quarter

Hourly Weather History & Observations

Time (GMT) Temp. Windchill Dew Point Humidity Pressure Visibility Wind Dir Wind Speed Gust Speed Precip Events Conditions
12:20 AM 41.0 °F 38.0 °F 39.2 °F 93% 29.98 in 6.2 mi SSE 4.6 mph - N/A   Light Drizzle
12:50 AM 41.0 °F 37.1 °F 39.2 °F 93% 29.98 in 6.2 mi SSE 5.8 mph - N/A   Mostly Cloudy
1:20 AM 39.2 °F 33.6 °F 39.2 °F 100% 29.98 in 4.3 mi South 8.1 mph - N/A   Drizzle
1:50 AM 39.2 °F 34.2 °F 39.2 °F 100% 29.98 in 5.0 mi South 6.9 mph - N/A Rain Light Rain
2:20 AM 39.2 °F 33.0 °F 39.2 °F 100% 29.98 in 5.0 mi South 9.2 mph - N/A Rain Rain
2:50 AM 39 °F - 38 °F 97% 30.00 in 5 mi South 12.7 mph - - Rain Rain
2:50 AM 39.2 °F 33.0 °F 37.4 °F 93% 29.98 in 4.3 mi South 9.2 mph - N/A Rain Light Rain
3:20 AM 39.2 °F 32.5 °F 37.4 °F 93% 29.98 in 6.2 mi South 10.4 mph - N/A   Mostly Cloudy
3:50 AM 39.2 °F 34.2 °F 37.4 °F 93% 29.98 in 6.2 mi SSE 6.9 mph - N/A   Mostly Cloudy
4:20 AM 39.2 °F 34.2 °F 37.4 °F 93% 29.98 in 6.2 mi South 6.9 mph - N/A   Scattered Clouds
4:50 AM 39.2 °F 35.9 °F 37.4 °F 93% 29.98 in 1.5 mi SE 4.6 mph - N/A Rain Rain
5:20 AM 39.2 °F 35.0 °F 39.2 °F 100% 29.98 in 3.1 mi SE 5.8 mph - N/A Rain Light Rain
5:50 AM 40 °F - 40 °F 99% 29.98 in 15 mi SSW 10.4 mph - - Rain Rain
5:50 AM 41.0 °F 35.8 °F 39.2 °F 93% 29.95 in 6.2 mi South 8.1 mph - N/A Rain Light Rain
6:20 AM 37.4 °F 32.8 °F 37.4 °F 100% 29.98 in 6.2 mi SSW 5.8 mph - N/A Rain Light Rain
6:50 AM 37.4 °F - 35.6 °F 93% 29.98 in 6.2 mi Variable 2.3 mph - N/A   Partly Cloudy
7:20 AM 35.6 °F 32.8 °F 35.6 °F 100% 29.98 in 6.2 mi Variable 3.5 mph - N/A   Partly Cloudy
7:50 AM 37.4 °F 34.9 °F 35.6 °F 93% 29.98 in - Variable 3.5 mph - N/A   Clear
8:20 AM 37.4 °F - 35.6 °F 93% 29.98 in 6.2 mi Variable 2.3 mph - N/A   Partly Cloudy
8:50 AM 38 °F - 37 °F 94% 30.00 in 18 mi SSE 6.9 mph - -   Overcast
8:50 AM 37.4 °F 32.1 °F 37.4 °F 100% 29.98 in 6.2 mi SSE 6.9 mph - N/A   Partly Cloudy
9:20 AM 37.4 °F 32.1 °F 37.4 °F 100% 29.98 in 6.2 mi South 6.9 mph - N/A   Scattered Clouds
9:50 AM 39.2 °F 34.2 °F 37.4 °F 93% 29.98 in 6.2 mi South 6.9 mph - N/A   Scattered Clouds
10:20 AM 39.2 °F 35.0 °F 37.4 °F 93% 29.98 in 6.2 mi South 5.8 mph - N/A   Scattered Clouds
10:50 AM 39.2 °F 35.0 °F 37.4 °F 93% 29.98 in 6.2 mi South 5.8 mph - N/A   Mostly Cloudy
11:20 AM 39.2 °F 35.0 °F 37.4 °F 93% 29.98 in 6.2 mi SSE 5.8 mph - N/A   Mostly Cloudy
11:50 AM 40 °F - 37 °F 86% 30.00 in 17 mi SSE 6.9 mph - -   Overcast
11:50 AM 39.2 °F 35.0 °F 37.4 °F 93% 29.98 in 6.2 mi SSE 5.8 mph - N/A   Mostly Cloudy
12:20 PM 41.0 °F 37.1 °F 37.4 °F 87% 29.98 in 6.2 mi SE 5.8 mph - N/A   Mostly Cloudy
12:50 PM 41.0 °F 38.0 °F 37.4 °F 87% 29.98 in 6.2 mi SSE 4.6 mph - N/A   Scattered Clouds
1:20 PM 41.0 °F 35.8 °F 37.4 °F 87% 29.98 in 6.2 mi South 8.1 mph - N/A   Scattered Clouds
1:50 PM 41.0 °F 36.4 °F 37.4 °F 87% 29.98 in 6.2 mi South 6.9 mph - N/A   Mostly Cloudy
2:20 PM 39.2 °F 35.0 °F 37.4 °F 93% 29.98 in 6.2 mi South 5.8 mph - N/A Rain Light Rain Showers
2:50 PM 40 °F - 38 °F 88% 29.98 in 13 mi South 8.1 mph - - Rain Light Rain
2:50 PM 39.2 °F 34.2 °F 37.4 °F 93% 29.98 in 6.2 mi South 6.9 mph - N/A   Mostly Cloudy
3:20 PM 39.2 °F 34.2 °F 37.4 °F 93% 29.98 in 6.2 mi South 6.9 mph - N/A   Mostly Cloudy
3:50 PM 39.2 °F 35.0 °F 37.4 °F 93% 29.98 in 6.2 mi South 5.8 mph - N/A   Mostly Cloudy
4:20 PM 39.2 °F 35.9 °F 37.4 °F 93% 29.98 in 6.2 mi South 4.6 mph - N/A   Mostly Cloudy
4:50 PM 39.2 °F 35.9 °F 37.4 °F 93% 29.98 in 6.2 mi South 4.6 mph - N/A   Mostly Cloudy
5:20 PM 39.2 °F 37.0 °F 37.4 °F 93% 29.98 in 5.6 mi SSE 3.5 mph - N/A   Mostly Cloudy
5:50 PM 39.2 °F 35.9 °F 37.4 °F 93% 29.98 in 5.0 mi SSE 4.6 mph - N/A   Mostly Cloudy
6:20 PM 39.2 °F 35.9 °F 37.4 °F 93% 29.98 in 5.6 mi South 4.6 mph - N/A   Mostly Cloudy
6:50 PM 39.2 °F 37.0 °F 37.4 °F 93% 29.98 in 4.3 mi South 3.5 mph - N/A   Light Drizzle
7:20 PM 39.2 °F 37.0 °F 37.4 °F 93% 29.98 in 4.3 mi SE 3.5 mph - N/A Rain Light Rain Showers
7:50 PM 39.2 °F 35.9 °F 37.4 °F 93% 29.98 in 4.3 mi SE 4.6 mph - N/A   Scattered Clouds
8:20 PM 39.2 °F 35.9 °F 37.4 °F 93% 29.98 in 4.3 mi South 4.6 mph - N/A   Light Drizzle
8:50 PM 39 °F - 38 °F 95% 29.99 in 7 mi South 6.9 mph - - Rain Rain
8:50 PM 39.2 °F 35.9 °F 37.4 °F 93% 29.98 in 4.3 mi SSE 4.6 mph - N/A   Mostly Cloudy
9:20 PM 39.2 °F 34.2 °F 37.4 °F 93% 29.98 in 4.3 mi SSE 6.9 mph - N/A   Light Drizzle
9:50 PM 39.2 °F 35.0 °F 37.4 °F 93% 29.98 in 5.6 mi South 5.8 mph - N/A   Mostly Cloudy
10:20 PM 39.2 °F 35.0 °F 37.4 °F 93% 29.98 in 3.7 mi South 5.8 mph - N/A Rain Light Rain
10:50 PM 39.2 °F 31.6 °F 37.4 °F 93% 29.98 in 3.1 mi SSE 12.7 mph - N/A Rain Light Rain
11:20 PM 39.2 °F 31.2 °F 37.4 °F 93% 29.98 in - South 13.8 mph - N/A Rain Rain
11:50 PM 39 °F - 37 °F 90% 30.00 in 18 mi SSE 13.8 mph - - Rain Light Rain
11:50 PM 39.2 °F 30.5 °F 37.4 °F 93% 29.98 in 6.2 mi SSE 16.1 mph - N/A Rain Light Rain